CW3590 Weather Reports


Display with metric or nautical units.
time (UTC)temp
F
wind
direction
speed
MPH
gust
MPH
rain 1hr
in
rain 24hr
in
rain mn
in
humidity
%
barometer
mb
20260831132006 77 0 0.0 0.0 0.00 0.00 0.00 80 1016.0
20260831131006 77 0 0.0 0.0 0.00 0.00 0.00 78 1015.9
20260831125006 77 0 0.0 1.0 0.00 0.00 0.00 77 1015.6
20260831124006 77 0 0.0 1.0 0.00 0.00 0.00 77 1015.5
20260831122006 78 0 0.0 1.0 0.00 0.00 0.00 77 1015.2
20260831120006 78 257 1.0 2.0 0.00 0.00 0.00 78 1015.1
20260831114006 77 242 1.0 5.0 0.00 0.00 0.00 78 1014.5
20260831113006 77 241 1.0 4.0 0.00 0.00 0.00 78 1014.4
20260831112005 77 223 0.0 3.0 0.00 0.00 0.00 78 1014.4
20260831111006 77 0 0.0 2.0 0.00 0.00 0.00 77 1014.5
20260831110006 77 0 0.0 3.0 0.00 0.00 0.00 77 1014.6
20260831105006 77 0 0.0 3.0 0.00 0.00 0.00 76 1014.6
20260831104006 77 0 0.0 0.0 0.00 0.00 0.00 75 1014.6
20260831103005 77 0 0.0 0.0 0.00 0.00 0.00 75 1014.6
20260831102006 77 0 0.0 0.0 0.00 0.00 0.00 74 1014.5
20260831100006 78 0 0.0 0.0 0.00 0.00 0.00 73 1014.3
20260831095006 78 0 0.0 0.0 0.00 0.00 0.00 73 1014.4
20260831094006 78 0 0.0 0.0 0.00 0.00 0.00 72 1014.3
20260831093006 78 0 0.0 1.0 0.00 0.00 0.00 72 1014.4
20260831092006 78 0 0.0 1.0 0.00 0.00 0.00 72 1014.3
20260831090006 79 0 0.0 2.0 0.00 0.00 0.00 71 1014.3
20260831084006 80 0 0.0 2.0 0.00 0.00 0.00 70 1014.2
20260831083006 80 0 0.0 0.0 0.00 0.00 0.00 69 1014.2
20260831082005 80 0 0.0 0.0 0.00 0.00 0.00 68 1014.1
20260831081006 81 0 0.0 0.0 0.00 0.00 0.00 68 1014.2
20260831080006 81 0 0.0 0.0 0.00 0.00 0.00 67 1014.2
20260831075005 81 0 0.0 0.0 0.00 0.00 0.00 67 1014.3
20260831074006 81 0 0.0 1.0 0.00 0.00 0.00 66 1014.1
20260831073006 81 0 0.0 1.0 0.00 0.00 0.00 66 1014.1
20260831072006 82 0 0.0 2.0 0.00 0.00 0.00 66 1014.1
20260831071006 82 0 0.0 1.0 0.00 0.00 0.00 65 1014.3
20260831070005 82 0 0.0 2.0 0.00 0.00 0.00 65 1014.3
20260831064006 82 0 0.0 1.0 0.00 0.00 0.00 64 1014.3
20260831063005 82 152 0.0 1.0 0.00 0.00 0.00 64 1014.4
20260831062007 82 147 1.0 2.0 0.00 0.00 0.00 64 1014.4
20260831061007 82 144 1.0 2.0 0.00 0.00 0.00 64 1014.2
20260831060005 82 161 1.0 2.0 0.00 0.00 0.00 64 1014.1
20260831055005 81 173 1.0 2.0 0.00 0.00 0.00 66 1014.0
20260831054005 81 175 0.0 2.0 0.00 0.00 0.00 65 1014.0
20260831053006 82 0 0.0 1.0 0.00 0.00 0.00 67 1014.0
20260831052006 82 0 0.0 1.0 0.00 0.00 0.00 66 1014.1
20260831050008 82 0 0.0 0.0 0.00 0.00 0.00 65 1013.8
20260831045005 82 0 0.0 0.0 0.00 0.00 0.00 64 1013.8
20260831044007 82 0 0.0 0.0 0.00 0.00 0.00 65 1013.9
20260831043005 82 0 0.0 0.0 0.00 0.00 0.00 65 1013.8
20260831042006 82 0 0.0 0.0 0.00 0.00 0.00 65 1013.7
20260831041006 83 0 0.0 1.0 0.00 0.00 0.00 65 1013.6
20260831040006 83 0 0.0 1.0 0.00 0.00 0.00 63 1013.6
20260831035006 83 0 0.0 0.0 0.00 0.00 0.00 63 1013.5
20260831034005 84 0 0.0 0.0 0.00 0.00 0.00 62 1013.4
20260831033006 84 0 0.0 0.0 0.00 0.00 0.00 60 1013.1
20260831032005 84 0 0.0 0.0 0.00 0.00 0.00 61 1013.1
20260831031007 85 0 0.0 0.0 0.00 0.00 0.00 60 1013.0
20260831030007 85 0 0.0 0.0 0.00 0.00 0.00 60 1012.8
20260831025005 86 0 0.0 1.0 0.00 0.00 0.00 60 1012.8
20260831023005 86 0 0.0 0.0 0.00 0.00 0.00 57 1012.6
20260831021006 87 0 0.0 1.0 0.00 0.00 0.00 56 1012.3
20260831020005 88 0 0.0 2.0 0.00 0.00 0.00 55 1012.3
20260831015006 88 0 0.0 0.0 0.00 0.00 0.00 53 1012.0
20260831014005 89 0 0.0 0.0 0.00 0.00 0.00 52 1011.9
20260831012005 90 0 0.0 0.0 0.00 0.00 0.00 51 1011.9
20260831005006 90 0 0.0 0.0 0.00 0.00 0.00 50 1011.7
20260831004005 91 0 0.0 0.0 0.00 0.00 0.00 49 1011.8
20260831003006 92 0 0.0 0.0 0.00 0.00 0.00 47 1011.9
20260831002005 92 0 0.0 0.0 0.00 0.00 0.00 49 1011.8
20260831001005 93 0 0.0 0.0 0.00 0.00 0.00 47 1011.7
20260831000005 93 0 0.0 2.0 0.00 0.00 0.00 47 1011.8
20260830235006 94 0 0.0 2.0 0.00 0.00 0.00 45 1011.8
20260830234005 95 177 0.0 2.0 0.00 0.00 0.00 43 1011.8
20260830233005 96 61 1.0 3.0 0.00 0.00 0.00 41 1011.8
20260830231005 96 80 1.0 3.0 0.00 0.00 0.00 42 1011.9
20260830224006 94 0 0.0 0.0 0.00 0.00 0.00 47 1011.9
20260830223005 94 0 0.0 0.0 0.00 0.00 0.00 45 1012.0
20260830221005 95 32 2.0 2.0 0.00 0.00 0.00 41 1012.0
20260830220005 97 45 2.0 6.0 0.00 0.00 0.00 39 1012.1
20260830215005 97 68 2.0 6.0 0.00 0.00 0.00 39 1012.2
20260830214005 99 37 2.0 5.0 0.00 0.00 0.00 41 1012.3
20260830213005 98 77 1.0 4.0 0.00 0.00 0.00 38 1012.4
20260830211005 94 0 0.0 1.0 0.00 0.00 0.00 53 1012.7
20260830210005 94 131 1.0 1.0 0.00 0.00 0.00 44 1012.7
20260830205005 94 329 1.0 3.0 0.00 0.00 0.00 43 1012.9
20260830204005 96 279 1.0 3.0 0.00 0.00 0.00 42 1013.1
20260830202006 94 136 1.0 3.0 0.00 0.00 0.00 47 1013.5
20260830201005 95 116 1.0 2.0 0.00 0.00 0.00 44 1013.6
20260830200005 96 112 2.0 5.0 0.00 0.00 0.00 42 1013.7
20260830195005 98 221 1.0 3.0 0.00 0.00 0.00 39 1013.9
20260830194005 97 161 2.0 3.0 0.00 0.00 0.00 37 1014.0
20260830193005 97 156 2.0 4.0 0.00 0.00 0.00 42 1014.0
20260830191005 96 228 2.0 8.0 0.00 0.00 0.00 42 1014.3
20260830185005 94 179 2.0 5.0 0.00 0.00 0.00 44 1014.7
20260830184005 95 182 3.0 7.0 0.00 0.00 0.00 45 1014.7
20260830183006 95 242 2.0 9.0 0.00 0.00 0.00 47 1014.7
20260830181005 94 264 4.0 10.0 0.00 0.00 0.00 49 1015.1
20260830180004 94 265 3.0 12.0 0.00 0.00 0.00 50 1015.3
20260830175005 93 244 4.0 8.0 0.00 0.00 0.00 51 1015.4
20260830174005 93 269 3.0 11.0 0.00 0.00 0.00 52 1015.4
20260830173005 92 240 3.0 8.0 0.00 0.00 0.00 52 1015.6
20260830171004 90 236 2.0 6.0 0.00 0.00 0.00 56 1015.9
20260830170004 90 223 3.0 7.0 0.00 0.00 0.00 57 1016.0
20260830165005 90 221 2.0 8.0 0.00 0.00 0.00 57 1016.2
20260830164005 89 162 2.0 7.0 0.00 0.00 0.00 56 1016.3
20260830163005 88 245 3.0 6.0 0.00 0.00 0.00 59 1016.3
20260830162004 88 236 2.0 6.0 0.00 0.00 0.00 59 1016.3
20260830161005 87 237 2.0 7.0 0.00 0.00 0.00 62 1016.3
20260830160005 86 232 2.0 5.0 0.00 0.00 0.00 65 1016.3
20260830154005 85 229 2.0 5.0 0.00 0.00 0.00 67 1016.4
20260830153005 84 210 2.0 6.0 0.00 0.00 0.00 67 1016.3
20260830152005 84 211 3.0 7.0 0.00 0.00 0.00 69 1016.2
20260830151005 83 228 2.0 6.0 0.00 0.00 0.00 71 1016.2
20260830150005 82 253 2.0 7.0 0.00 0.00 0.00 76 1016.2
20260830145005 81 270 2.0 6.0 0.00 0.00 0.00 79 1016.2
20260830144004 81 272 1.0 6.0 0.00 0.00 0.00 81 1016.3
20260830141005 80 228 2.0 5.0 0.00 0.00 0.00 84 1016.3
20260830140005 79 202 1.0 4.0 0.00 0.00 0.00 85 1016.3
20260830134005 78 241 1.0 3.0 0.00 0.00 0.00 87 1016.2
20260830133005 78 189 1.0 4.0 0.00 0.00 0.00 87 1016.2